Change the Weather History Date:

Tuesday, October 21, 2014

  Actual Average Record
Temperature  
Mean Temperature 64 °F -  
Max Temperature 69 °F 75 °F 93 °F (2001)
Min Temperature 60 °F 52 °F 39 °F (1996)
Degree Days  
Heating Degree Days 1    
Growing Degree Days 14 (Base 50)    
Moisture  
Dew Point 60 °F    
Average Humidity 88    
Maximum Humidity 100    
Minimum Humidity 76    
Precipitation  
Precipitation 0.00 in - - ()
Sea Level Pressure  
Sea Level Pressure 30.01 in    
Wind  
Wind Speed 9 mph (SE)    
Max Wind Speed 15 mph    
Max Gust Speed 23 mph    
Visibility 10 miles    
Events Rain , Thunderstorm    
Averages and records for this station are not official NWS values.
T = Trace of Precipitation, MM = Missing Value Source: NWS Daily Summary

Daily Weather History Graph

Daily Weather History Graph

Search for Another Location

Airport or City:

Trip Planner

Search our weather history database for the weather conditions in past years. The results will help you decide how hot, cold, wet, or windy it might be!

Date:

Astronomy

Oct. 21, 2014 Rise Set
Actual Time 7:58 AM CDT 7:13 PM CDT
Civil Twilight 7:33 AM CDT 7:38 PM CDT
Nautical Twilight 7:05 AM CDT 8:06 PM CDT
Astronomical Twilight 6:37 AM CDT 8:34 PM CDT
Moon 5:53 AM CDT 6:02 PM CDT
Length of Visible Light 12h 04m
Length of Day
11h 15m
Waning Crescent, 5% of the Moon is Illuminated
Oct 21
Waning Crescent
Oct 23
New
Oct 30
First Quarter
Nov 6
Full
Nov 14
Last Quarter

Hourly Weather History & Observations

Time (CDT) Temp. Dew Point Humidity Pressure Visibility Wind Dir Wind Speed Gust Speed Precip Events Conditions
12:53 AM 63.0 °F 59.0 °F 87% 29.96 in 10.0 mi SE 6.9 mph - N/A   Clear
1:53 AM 63.0 °F 57.9 °F 84% 29.95 in 10.0 mi ESE 9.2 mph - N/A   Clear
2:53 AM 62.1 °F 57.9 °F 86% 29.95 in 10.0 mi ESE 9.2 mph - N/A   Clear
3:53 AM 60.1 °F 57.9 °F 93% 29.97 in 10.0 mi South 4.6 mph - N/A   Scattered Clouds
4:53 AM 61.0 °F 59.0 °F 93% 29.98 in 10.0 mi SE 3.5 mph - N/A   Overcast
5:06 AM 62.1 °F 59.0 °F 90% 30.08 in 10.0 mi ESE 4.6 mph - N/A   Overcast
5:53 AM 61.0 °F 59.0 °F 93% 29.97 in 10.0 mi East 5.8 mph - N/A   Overcast
6:40 AM 61.0 °F 59.0 °F 93% 30.08 in 10.0 mi East 4.6 mph - N/A Rain , Thunderstorm Light Rain
6:53 AM 62.1 °F 59.0 °F 90% 29.98 in 10.0 mi East 6.9 mph - N/A Rain Light Rain
7:13 AM 62.1 °F 60.1 °F 93% 30.08 in 10.0 mi East 6.9 mph - N/A Thunderstorm Overcast
7:34 AM 62.1 °F 61.0 °F 96% 30.08 in 10.0 mi ESE 6.9 mph - N/A Rain Light Rain
7:50 AM 62.6 °F 60.8 °F 94% 30.09 in 10.0 mi ESE 9.2 mph - N/A   Overcast
7:53 AM 62.1 °F 61.0 °F 96% 29.98 in 10.0 mi ESE 9.2 mph - N/A   Overcast
8:53 AM 62.1 °F 61.0 °F 96% 30.01 in 10.0 mi ESE 5.8 mph - N/A   Overcast
9:53 AM 62.1 °F 62.1 °F 100% 30.02 in 10.0 mi East 5.8 mph - N/A Rain Light Rain
10:53 AM 64.0 °F 61.0 °F 90% 30.02 in 10.0 mi SE 11.5 mph - N/A   Overcast
11:19 AM 64.0 °F 62.1 °F 93% 30.11 in 10.0 mi ESE 15.0 mph - N/A   Mostly Cloudy
11:32 AM 64.0 °F 61.0 °F 90% 30.11 in 10.0 mi SE 13.8 mph 23.0 mph N/A Rain Light Rain
11:41 AM 64.0 °F 61.0 °F 90% 30.11 in 10.0 mi ESE 15.0 mph 23.0 mph N/A   Mostly Cloudy
11:49 AM 64.4 °F 60.8 °F 88% 30.11 in 10.0 mi SE 13.8 mph 23.0 mph N/A   Mostly Cloudy
11:53 AM 64.0 °F 61.0 °F 90% 30.01 in 10.0 mi ESE 15.0 mph - N/A   Mostly Cloudy
12:46 PM 66.9 °F 61.0 °F 81% 30.10 in 10.0 mi SE 11.5 mph 20.7 mph N/A   Overcast
12:53 PM 66.9 °F 61.0 °F 81% 29.99 in 10.0 mi ESE 15.0 mph - N/A   Mostly Cloudy
1:30 PM 66.9 °F 60.1 °F 79% 30.08 in 10.0 mi SE 13.8 mph - N/A   Mostly Cloudy
1:53 PM 66.0 °F 60.1 °F 81% 29.97 in 10.0 mi SE 13.8 mph - N/A   Overcast
2:53 PM 68.0 °F 61.0 °F 78% 29.95 in 10.0 mi SE 11.5 mph - 0.00 in   Mostly Cloudy
3:08 PM 68.0 °F 61.0 °F 78% 30.05 in 10.0 mi SE 13.8 mph - N/A   Mostly Cloudy
3:53 PM 68.0 °F 60.1 °F 76% 29.94 in 10.0 mi SSE 12.7 mph - 0.00 in   Overcast
4:53 PM 68.0 °F 60.1 °F 76% 29.94 in 10.0 mi SE 13.8 mph - N/A   Mostly Cloudy
5:33 PM 66.9 °F 60.1 °F 79% 30.04 in 10.0 mi SE 15.0 mph - N/A   Mostly Cloudy
5:53 PM 66.0 °F 61.0 °F 84% 29.95 in 10.0 mi SE 11.5 mph - 0.00 in Rain Light Rain
6:53 PM 64.9 °F 61.0 °F 87% 29.95 in 10.0 mi SE 10.4 mph - 0.00 in Rain Light Rain
7:53 PM 64.0 °F 62.1 °F 93% 29.95 in 10.0 mi SE 8.1 mph - 0.00 in Rain Light Rain
8:53 PM 64.0 °F 61.0 °F 90% 29.96 in 10.0 mi SE 10.4 mph - 0.00 in   Partly Cloudy
9:53 PM 63.0 °F 61.0 °F 93% 29.97 in 10.0 mi SE 8.1 mph - N/A   Scattered Clouds
10:53 PM 62.1 °F 59.0 °F 90% 29.97 in 10.0 mi SE 9.2 mph - N/A   Clear
11:53 PM 61.0 °F 59.0 °F 93% 29.97 in 10.0 mi SSE 4.6 mph - N/A   Clear